Location: Unspecified
(0.0000°N, 1.0000°E)
Time: 01:11:21
(UTC+02:00)

Amateur Radio Satellites - All Passes

Search period start: 02 May 2016 00:41
Search period end: 03 May 2016 00:41
Location: Unspecified, 0.0000°N, 1.0000°E

Satellite Date Start Highest point End Downlink Frequencies (MHz)
Time Altitude Azimuth
ESTCUBE 1 02 May 00:45:06 00:49:28 52° 78° (ENE) 00:53:47 437.505/2401.250
QB50P2 02 May 00:52:23 00:56:32 63° 101° (ESE) 01:00:42 145.880/145.840
DUCHIFAT 1 02 May 00:54:07 00:58:12 54° 102° (ESE) 01:02:16 145.980
POLYITAN 1 02 May 00:54:31 00:58:39 65° 101° (ESE) 01:02:49 437.675
POPSAT HIP 1 02 May 00:57:30 01:01:40 69° 103° (ESE) 01:05:51 437.405
QB50P1 02 May 01:00:51 01:05:02 80° 100° (E) 01:09:14 145.935-145.965
JUGNU 02 May 01:02:03 01:07:00 26° 18° (NNE) 01:11:57 437.505
Cosmos 2499 02 May 01:05:57 01:09:42 14° 95° (E) 01:13:20 435.465 / 435.565
CUBEBUG 1 02 May 01:13:10 01:17:31 84° 78° (ENE) 01:21:52 437.445
AIST 1 02 May 01:16:55 01:21:04 53° 94° (E) 01:25:13
AO-85 02 May 01:35:05 01:38:14 22° 249° (WSW) 01:41:18 145.980
VELOX 1 02 May 01:36:54 01:41:04 42° 258° (WSW) 01:45:14 145.980
NANOSAT C BR1 02 May 01:36:57 01:40:38 30° 282° (WNW) 01:44:20 145.865
DX 1 02 May 01:38:39 01:42:48 45° 258° (WSW) 01:46:57 434.975-435.025
BUGSAT 1 02 May 01:41:59 01:46:05 73° 281° (W) 01:50:08 437.445
JAS-2 02 May 01:43:46 01:49:54 26° 102° (ESE) 01:55:40 435.910
UKube-1 02 May 01:47:45 01:51:52 43° 258° (WSW) 01:55:57 .
GONETS M04 02 May 01:54:24 02:03:15 82° 273° (W) 02:12:06
50 SAT 02 May 01:58:23 02:00:05 13° 258° (WSW) 02:01:46 437.505
SRMSAT 02 May 01:59:24 02:02:54 16° 13° (NNE) 02:06:24 437.500
AISAT 02 May 02:10:29 02:12:55 15° 258° (WSW) 02:15:20 437.250
Oscar 19 02 May 02:12:43 02:16:28 21° 103° (ESE) 02:20:14 437.125/150
SPROUT 02 May 02:20:22 02:24:19 35° 258° (WSW) 02:28:14 437.525
JUGNU 02 May 02:50:15 02:56:13 68° 21° (NNE) 03:02:11 437.505
Cosmos 2499 02 May 02:55:21 03:02:35 51° 273° (W) 03:09:26 435.465 / 435.565
BEESAT 02 May 02:57:50 03:00:46 16° 77° (ENE) 03:03:41 436.000
TISAT 1 02 May 02:59:14 03:03:18 47° 258° (WSW) 03:07:22 437.305
O/OREOS (USA 219) 02 May 03:00:47 03:05:01 42° 76° (ENE) 03:09:15 437.305
JAS-2 02 May 03:27:30 03:34:34 39° 284° (WNW) 03:41:16 435.910
ITAMSAT 1 02 May 03:28:42 03:32:02 17° 103° (ESE) 03:35:22 435.822/435.867
Gurwin Techsat 1B 02 May 03:34:21 03:39:37 66° 103° (ESE) 03:44:53 435.225
CUSAT 1 02 May 03:45:47 03:53:40 58° 85° (E) 04:01:09 437.405
SRMSAT 02 May 03:47:13 03:52:36 35° 19° (NNE) 03:57:57 437.500
ITUPSAT 1 02 May 03:50:03 03:54:51 82° 77° (ENE) 03:59:36 437.325
Oscar 19 02 May 03:51:25 03:55:31 24° 283° (WNW) 03:59:38 437.125/150
PCSat 02 May 03:57:00 04:02:24 89° 252° (WSW) 04:07:49 145.827
SWISSCUBE 02 May 04:00:15 04:04:58 62° 258° (WSW) 04:09:40 437.505
DANDE 02 May 04:15:47 04:23:31 52° 86° (E) 04:31:35 436.750
BEESAT 02 May 04:34:22 04:38:17 25° 257° (WSW) 04:42:11 436.000
JUGNU 02 May 04:39:38 04:45:18 44° 200° (SSW) 04:50:59 437.505
AO-7 02 May 04:43:11 04:50:54 43° 106° (ESE) 04:58:39 29.400- 29.500
ITAMSAT 1 02 May 05:06:47 05:11:13 29° 283° (WNW) 05:15:41 435.822/435.867
MOZHAYETS 4 02 May 05:15:32 05:19:57 46° 78° (ENE) 05:24:20
KKS-1 02 May 05:21:09 05:25:37 78° 259° (W) 05:30:04 437.445
HORYU 2 02 May 05:26:33 05:29:10 16° 103° (ESE) 05:31:48 437.375
CUSAT 1 02 May 05:30:16 05:35:22 18° 267° (W) 05:40:20 437.405
SRMSAT 02 May 05:35:53 05:41:52 87° 201° (SSW) 05:47:50 437.500
STARS 02 May 05:41:05 05:45:32 85° 78° (ENE) 05:49:57 437.465
BEESAT 3 02 May 05:52:31 05:55:27 20° 68° (ENE) 05:58:22 437.485
BEESAT 2 02 May 05:58:56 06:00:26 12° 68° (ENE) 06:01:56 435.950
DANDE 02 May 06:00:11 06:06:08 23° 265° (W) 06:12:16 436.750
ISS 02 May 06:13:17 06:16:32 66° 125° (SE) 06:19:45 145.825
JUGNU 02 May 06:30:37 06:34:42 19° 195° (SSW) 06:38:46 437.505
NOAA 18 02 May 06:32:31 06:34:16 11° 104° (ESE) 06:36:01 137.9125
AO-7 02 May 06:36:46 06:43:18 26° 287° (WNW) 06:49:53 29.400- 29.500
SO-50 02 May 06:44:51 06:49:15 37° 112° (ESE) 06:53:43 436.795
YUBILEINY 02 May 06:50:00 06:56:12 22° 87° (E) 07:02:23 435.215
BRITE-PL 02 May 06:51:14 06:53:41 13° 101° (E) 06:56:06 437.365/2234.400
CUBESAT XI-V 02 May 06:57:17 07:01:51 66° 79° (E) 07:06:23 437.345
HORYU 2 02 May 07:02:03 07:05:27 22° 282° (WNW) 07:08:53 437.375
Cosmos 2491 02 May 07:04:05 07:11:44 34° 93° (E) 07:19:21 435.465 / 435.565
Cubesat XI-IV 02 May 07:10:55 07:15:11 25° 103° (ESE) 07:19:27 437.490
NOAA 15 02 May 07:12:23 07:17:24 44° 103° (ESE) 07:22:26 137.62
SRMSAT 02 May 07:25:53 07:31:09 32° 199° (SSW) 07:36:24 437.500
BEESAT 3 02 May 07:31:01 07:32:54 13° 248° (WSW) 07:34:46 437.485
BEESAT 2 02 May 07:34:54 07:38:02 23° 248° (WSW) 07:41:10 435.950
LilacSat-2 02 May 07:36:03 07:39:37 41° 101° (E) 07:43:12 437.200
STRAND 1 02 May 07:50:03 07:52:47 15° 77° (ENE) 07:55:30 437.568
CUTE-I 02 May 08:05:41 08:10:58 72° 283° (WNW) 08:16:19 437.470
GOMX 1 02 May 08:06:13 08:11:06 45° 101° (E) 08:15:40 467.674
PHONESAT 2.4 02 May 08:06:53 08:10:01 81° 317° (NW) 08:13:08 2401.200-2431.200
DOVE 4 02 May 08:09:12 08:12:18 18° 100° (E) 08:15:18 437.250
NOAA 18 02 May 08:09:27 08:14:37 46° 283° (WNW) 08:19:49 137.9125
HO-68 02 May 08:21:33 08:23:32 11° 106° (ESE) 08:25:29 435.675
JUGNU 02 May 08:23:33 08:24:38 10° 186° (S) 08:25:44 437.505
BRITE-PL 02 May 08:26:47 08:31:57 41° 283° (WNW) 08:36:52 437.365/2234.400
SO-50 02 May 08:27:48 08:29:32 12° 293° (WNW) 08:31:16 436.795
YUBILEINY 02 May 08:44:22 08:52:34 47° 267° (W) 09:00:52 435.215
Cubesat XI-IV 02 May 08:51:00 08:54:58 22° 283° (WNW) 08:58:58 437.490
NOAA 15 02 May 08:55:19 08:56:53 11° 283° (WNW) 08:58:28 137.62
AIST 2 02 May 08:57:00 09:01:02 57° 249° (WSW) 09:05:05 435.215
M-CUBED/EXP-1 PRIME 02 May 08:59:27 09:02:30 29° 286° (WNW) 09:05:27 437.505
CINEMA 3 02 May 09:00:10 09:03:01 17° 101° (E) 09:05:50 145.822/145.860
Cosmos 2491 02 May 09:00:44 09:08:09 31° 273° (W) 09:15:38 435.465 / 435.565
Cosmos 2504 02 May 09:01:40 09:09:29 50° 88° (E) 09:17:47 435.465 / 435.565
CANX-2 02 May 09:14:01 09:17:50 33° 102° (ESE) 09:21:42 2200.000
SRMSAT 02 May 09:17:36 09:20:52 15° 192° (SSW) 09:24:06 437.500
AUBIESAT-1 02 May 09:19:33 09:22:02 19° 286° (WNW) 09:24:28 437.475
RS-15 02 May 09:20:27 09:32:28 60° 69° (ENE) 09:44:04 29.354- 29.394
AAUSAT CUBESAT 2 02 May 09:20:55 09:21:37 10° 102° (ESE) 09:22:19 437.432
STRAND 1 02 May 09:27:07 09:31:41 33° 257° (WSW) 09:36:13 437.568
DOVE 4 02 May 09:46:09 09:49:45 22° 283° (WNW) 09:53:13 437.250
CUTE 1.7 + AOD 2 02 May 09:46:35 09:50:49 89° 122° (ESE) 09:55:05 437.475
UWE-3 02 May 09:49:54 09:51:22 12° 102° (ESE) 09:52:50 435.000/436.395/437.385
CUBEBUG 2 02 May 09:53:29 09:56:45 22° 102° (ESE) 10:00:00 437.445
HO-68 02 May 10:03:44 10:10:50 70° 284° (WNW) 10:17:58 435.675
JUGNU 02 May 10:13:59 10:14:51 10° 175° (S) 10:15:44 437.505
SEEDS 02 May 10:15:49 10:19:52 49° 281° (W) 10:23:58 437.485
COMPASS 1 02 May 10:20:55 10:25:02 65° 282° (WNW) 10:29:13 437.405
ZACube-1 02 May 10:21:09 10:24:16 21° 102° (ESE) 10:27:24 437.345
PRISM 02 May 10:25:31 10:29:03 29° 258° (WSW) 10:32:36 437.425
CINEMA 3 02 May 10:37:01 10:39:55 18° 282° (WNW) 10:42:46 145.822/145.860
DELFI C3 02 May 10:40:15 10:43:05 19° 102° (ESE) 10:45:56 145.870
AAUSAT CUBESAT 2 02 May 10:53:15 10:56:49 28° 281° (WNW) 11:00:26 437.432
Cosmos 2504 02 May 10:57:05 11:02:36 20° 265° (W) 11:08:22 435.465 / 435.565
Oscar 11 02 May 11:04:11 11:08:27 68° 282° (WNW) 11:12:45 145.826/435.025
FUNcube-1 02 May 11:14:31 11:18:35 62° 281° (WNW) 11:22:41 145.935
ANTELSAT 02 May 11:17:18 11:21:01 23° 78° (ENE) 11:24:43 437.575/2403.000
UWE-3 02 May 11:24:13 11:27:34 24° 281° (WNW) 11:30:56 435.000/436.395/437.385
CUBEBUG 2 02 May 11:31:16 11:33:07 13° 282° (WNW) 11:34:57 437.445
HUMSAT D 02 May 11:31:55 11:35:41 38° 102° (ESE) 11:39:31 437.325/437.525
RS-15 02 May 11:35:18 11:44:29 25° 249° (WSW) 11:53:31 29.354- 29.394
ZACube-1 02 May 11:58:13 12:00:18 14° 282° (WNW) 12:02:25 437.345
JUGNU 02 May 12:00:51 12:04:47 18° 165° (SSE) 12:08:43 437.505
AO-85 02 May 12:05:44 12:10:09 30° 111° (ESE) 12:14:46 145.980
NANOSAT C BR1 02 May 12:09:19 12:11:04 12° 78° (ENE) 12:12:48 145.865
UNISAT 6 02 May 12:10:35 12:15:14 64° 258° (WSW) 12:19:53 437.425
VELOX 1 02 May 12:14:55 12:16:31 12° 102° (ESE) 12:18:06 145.980
DELFI C3 02 May 12:15:27 12:17:42 15° 281° (W) 12:19:57 145.870
50 SAT 02 May 12:15:45 12:17:20 12° 102° (ESE) 12:18:55 437.505
TIGRISAT 02 May 12:28:41 12:33:04 39° 258° (WSW) 12:37:25 435.000
GONETS M04 02 May 12:33:54 12:40:27 24° 87° (E) 12:46:56
AISAT 02 May 12:44:25 12:48:27 34° 102° (ESE) 12:52:28 437.250
ANTELSAT 02 May 12:54:20 12:57:27 18° 258° (WSW) 13:00:33 437.575/2403.000
SPROUT 02 May 12:54:47 12:56:06 11° 102° (ESE) 12:57:23 437.525
QB50P2 02 May 12:58:41 13:02:58 80° 79° (E) 13:07:15 145.880/145.840
ESTCUBE 1 02 May 12:58:58 13:03:31 83° 104° (ESE) 13:08:04 437.505/2401.250
SRMSAT 02 May 12:59:13 13:01:27 12° 171° (S) 13:03:42 437.500
DUCHIFAT 1 02 May 12:59:34 13:03:48 67° 78° (ENE) 13:08:01 145.980
POLYITAN 1 02 May 13:00:49 13:05:06 82° 79° (E) 13:09:24 437.675
POPSAT HIP 1 02 May 13:03:39 13:07:56 87° 82° (E) 13:12:13 437.405
QB50P1 02 May 13:06:59 13:11:15 82° 256° (WSW) 13:15:32 145.935-145.965
Cosmos 2499 02 May 13:12:08 13:18:27 24° 88° (E) 13:24:57 435.465 / 435.565
CUBEBUG 1 02 May 13:23:16 13:27:39 69° 281° (W) 13:32:01 437.445
AIST 1 02 May 13:23:18 13:27:41 78° 86° (E) 13:32:03
NANOSAT C BR1 02 May 13:42:59 13:46:31 26° 258° (WSW) 13:50:04 145.865
BUGSAT 1 02 May 13:45:01 13:49:08 66° 258° (WSW) 13:53:17 437.445
AO-85 02 May 13:46:52 13:50:27 19° 293° (WNW) 13:54:09 145.980
50 SAT 02 May 13:48:20 13:50:51 18° 281° (WNW) 13:53:24 437.505
DX 1 02 May 13:48:30 13:52:25 33° 282° (WNW) 13:56:22 434.975-435.025
JUGNU 02 May 13:48:38 13:54:09 43° 160° (SSE) 13:59:41 437.505
VELOX 1 02 May 13:48:52 13:52:43 29° 282° (WNW) 13:56:35 145.980
UKube-1 02 May 13:56:31 14:00:23 33° 282° (WNW) 14:04:16 .
SPROUT 02 May 14:28:09 14:31:46 28° 282° (WNW) 14:35:25 437.525
GONETS M04 02 May 14:28:50 14:36:51 42° 267° (W) 14:44:54
Gurwin Techsat 1B 02 May 14:36:39 14:38:30 12° 77° (ENE) 14:40:22 435.225
Oscar 19 02 May 14:45:09 14:50:09 53° 78° (ENE) 14:55:09 437.125/150
SRMSAT 02 May 14:46:40 14:51:22 24° 163° (SSE) 14:56:05 437.500
SWISSCUBE 02 May 14:47:09 14:49:19 13° 103° (ESE) 14:51:30 437.505
PCSat 02 May 14:51:43 14:55:27 19° 110° (ESE) 14:59:12 145.827
JAS-2 02 May 15:00:43 15:05:55 62° 258° (WSW) 15:11:33 435.910
Cosmos 2499 02 May 15:03:17 15:11:05 44° 266° (W) 15:19:20 435.465 / 435.565
TISAT 1 02 May 15:04:45 15:08:38 38° 282° (WNW) 15:12:32 437.305
O/OREOS (USA 219) 02 May 15:11:26 15:16:02 77° 103° (ESE) 15:20:36 437.305
BEESAT 02 May 15:18:23 15:22:34 31° 103° (ESE) 15:26:46 436.000
JUGNU 02 May 15:37:23 15:43:12 69° 339° (NNW) 15:49:03 437.505
ITAMSAT 1 02 May 16:02:09 16:07:08 45° 77° (ENE) 16:12:03 435.822/435.867
ITUPSAT 1 02 May 16:12:25 16:17:01 50° 282° (WNW) 16:21:41 437.325
Gurwin Techsat 1B 02 May 16:13:10 16:18:11 43° 258° (WSW) 16:23:10 435.225
SWISSCUBE 02 May 16:22:38 16:26:50 31° 282° (WNW) 16:31:04 437.505
CUSAT 1 02 May 16:29:26 16:31:47 30° 277° (W) 16:34:19 437.405
PCSat 02 May 16:34:00 16:38:35 28° 289° (WNW) 16:43:09 145.827
SRMSAT 02 May 16:34:54 16:40:47 61° 159° (SSE) 16:46:41 437.500
BEESAT 02 May 16:57:51 17:00:05 13° 283° (WNW) 17:02:19 436.000
DANDE 02 May 17:06:22 17:08:47 29° 275° (W) 17:11:06 436.750
AO-7 02 May 17:09:09 17:17:24 68° 74° (ENE) 17:25:35 29.400- 29.500
JUGNU 02 May 17:27:33 17:32:22 26° 342° (NNW) 17:37:14 437.505
MOZHAYETS 4 02 May 17:31:57 17:36:31 80° 101° (ESE) 17:41:09
KKS-1 02 May 17:33:47 17:38:05 51° 282° (WNW) 17:42:23 437.445
HORYU 2 02 May 17:38:08 17:41:43 23° 78° (ENE) 17:45:17 437.375
BEESAT 3 02 May 17:45:06 17:48:06 21° 112° (ESE) 17:51:05 437.485
ITAMSAT 1 02 May 17:45:26 17:46:17 10° 256° (WSW) 17:47:07 435.822/435.867
ISS 02 May 17:47:13 17:50:15 37° 55° (NE) 17:53:18 145.825
STARS 02 May 17:52:05 17:56:25 66° 282° (WNW) 18:00:45 437.465
BEESAT 2 02 May 17:52:21 17:54:10 13° 112° (ESE) 17:55:59 435.950
SRMSAT 02 May 18:24:15 18:30:01 49° 339° (NNW) 18:35:48 437.500
SO-50 02 May 18:57:47 19:02:14 68° 69° (ENE) 19:06:34 436.795
AO-7 02 May 19:05:40 19:09:42 14° 252° (WSW) 19:13:44 29.400- 29.500
CUTE-I 02 May 19:06:38 19:10:40 22° 77° (ENE) 19:14:40 437.470
NOAA 18 02 May 19:13:36 19:18:45 40° 77° (ENE) 19:23:53 137.9125
HORYU 2 02 May 19:15:21 19:18:00 15° 257° (WSW) 19:20:38 437.375
CUBESAT XI-V 02 May 19:15:24 19:20:05 69° 282° (WNW) 19:24:47 437.345
BRITE-PL 02 May 19:16:07 19:19:29 22° 77° (ENE) 19:23:00 437.365/2234.400
JUGNU 02 May 19:19:30 19:22:04 13° 350° (N) 19:24:38 437.505
YUBILEINY 02 May 19:21:39 19:29:53 44° 93° (E) 19:38:01 435.215
BEESAT 3 02 May 19:23:45 19:25:32 13° 292° (WNW) 19:27:19 437.485
M-CUBED/EXP-1 PRIME 02 May 19:27:35 19:27:50 10° 73° (ENE) 19:28:03 437.505
BEESAT 2 02 May 19:28:43 19:31:46 21° 292° (WNW) 19:34:49 435.950
LilacSat-2 02 May 19:30:43 19:34:16 35° 79° (E) 19:37:49 437.200
PHONESAT 2.4 02 May 19:36:44 19:39:50 56° 44° (NE) 19:42:57 2401.200-2431.200
Cosmos 2491 02 May 19:36:52 19:45:30 66° 87° (E) 19:54:07 435.465 / 435.565
AUBIESAT-1 02 May 19:44:29 19:46:58 15° 73° (ENE) 19:49:29 437.475
Cubesat XI-IV 02 May 19:49:28 19:54:50 73° 78° (ENE) 20:00:09 437.490
NOAA 15 02 May 19:49:35 19:54:47 65° 257° (WSW) 19:59:58 137.62
SRMSAT 02 May 20:15:11 20:19:31 20° 344° (NNW) 20:23:52 437.500
STRAND 1 02 May 20:20:35 20:25:15 36° 103° (ESE) 20:29:58 437.568
DOVE 4 02 May 20:27:56 20:32:11 34° 78° (ENE) 20:36:38 437.250
GOMX 1 02 May 20:29:09 20:33:41 89° 82° (E) 20:38:33 467.674
CUTE-I 02 May 20:46:11 20:50:26 24° 257° (WSW) 20:54:40 437.470
BRITE-PL 02 May 20:55:14 20:57:46 15° 260° (W) 21:00:24 437.365/2234.400
AIST 2 02 May 20:55:30 20:59:27 45° 292° (WNW) 21:03:24 435.215
PRISM 02 May 20:55:48 20:56:52 11° 103° (ESE) 20:57:56 437.425
NOAA 18 02 May 20:56:17 20:59:07 14° 256° (WSW) 21:01:56 137.9125
M-CUBED/EXP-1 PRIME 02 May 20:57:45 21:02:00 41° 255° (WSW) 21:06:24 437.505
RS-15 02 May 21:03:25 21:13:41 47° 111° (ESE) 21:24:12 29.354- 29.394
Cosmos 2504 02 May 21:14:28 21:22:14 66° 94° (E) 21:29:29 435.465 / 435.565
CINEMA 3 02 May 21:14:40 21:19:01 34° 78° (ENE) 21:23:28 145.822/145.860
AUBIESAT-1 02 May 21:17:16 21:21:08 29° 255° (WSW) 21:25:07 437.475
YUBILEINY 02 May 21:19:47 21:26:15 23° 273° (W) 21:32:44 435.215
CANX-2 02 May 21:20:28 21:24:30 42° 79° (ENE) 21:28:29 2200.000
AAUSAT CUBESAT 2 02 May 21:23:57 21:25:27 12° 78° (ENE) 21:26:55 437.432
Cosmos 2491 02 May 21:37:57 21:41:56 14° 267° (W) 21:45:57 435.465 / 435.565
CUTE 1.7 + AOD 2 02 May 21:53:07 21:57:22 72° 259° (W) 22:01:34 437.475
HO-68 02 May 21:55:19 22:02:31 82° 256° (WSW) 22:09:41 435.675
UWE-3 02 May 21:59:11 22:02:37 20° 78° (ENE) 22:06:02 435.000/436.395/437.385
STRAND 1 02 May 22:01:52 22:04:09 13° 283° (WNW) 22:06:28 437.568
CUBEBUG 2 02 May 22:04:46 22:09:09 38° 79° (ENE) 22:13:34 437.445
DOVE 4 02 May 22:07:45 22:09:41 12° 259° (W) 22:11:38 437.250
SRMSAT 02 May 22:07:52 22:09:35 11° 353° (N) 22:11:18 437.500
SEEDS 02 May 22:21:24 22:25:22 40° 258° (WSW) 22:29:17 437.485
COMPASS 1 02 May 22:25:24 22:29:29 54° 258° (WSW) 22:33:31 437.405
PRISM 02 May 22:28:21 22:31:54 28° 282° (WNW) 22:35:29 437.425
ZACube-1 02 May 22:30:10 22:34:16 32° 78° (ENE) 22:38:20 437.345
DELFI C3 02 May 22:39:32 22:42:14 18° 79° (E) 22:44:56 145.870
CINEMA 3 02 May 22:53:41 22:55:54 13° 259° (WSW) 22:58:08 145.822/145.860
AAUSAT CUBESAT 2 02 May 22:57:17 23:00:40 24° 258° (WSW) 23:04:03 437.432
JUGNU 02 May 22:59:24 23:02:22 14° 11° (N) 23:05:20 437.505
TIGRISAT 02 May 23:07:38 23:09:39 13° 102° (ESE) 23:11:40 435.000
Oscar 11 02 May 23:13:04 23:17:17 49° 258° (WSW) 23:21:28 145.826/435.025
Cosmos 2504 02 May 23:13:27 23:15:03 11° 272° (W) 23:16:37 435.465 / 435.565
RS-15 02 May 23:16:43 23:25:37 29° 292° (WNW) 23:34:52 29.354- 29.394
FUNcube-1 02 May 23:23:52 23:28:16 46° 258° (WSW) 23:32:38 145.935
ANTELSAT 02 May 23:30:25 23:34:11 31° 102° (ESE) 23:37:58 437.575/2403.000
UWE-3 02 May 23:35:24 23:38:47 20° 258° (WSW) 23:42:11 435.000/436.395/437.385
HUMSAT D 02 May 23:36:36 23:40:45 47° 79° (E) 23:44:50 437.325/437.525
CUBEBUG 2 02 May 23:44:34 23:45:29 10° 258° (WSW) 23:46:25 437.445
SRMSAT 02 May 23:59:04 23:59:58 10° 4° (N) 00:00:53 437.500
ZACube-1 03 May 00:08:39 00:10:15 12° 258° (WSW) 00:11:51 437.345
NANOSAT C BR1 03 May 00:14:35 00:16:53 14° 102° (ESE) 00:19:11 145.865
DELFI C3 03 May 00:14:36 00:16:51 15° 258° (WSW) 00:19:06 145.870
AO-85 03 May 00:19:48 00:23:43 44° 67° (ENE) 00:27:25 145.980
DX 1 03 May 00:24:00 00:26:10 14° 78° (ENE) 00:28:20 434.975-435.025
UNISAT 6 03 May 00:24:30 00:28:27 38° 282° (WNW) 00:32:26 437.425
VELOX 1 03 May 00:25:20 00:28:11 17° 78° (ENE) 00:31:02 145.980
UKube-1 03 May 00:31:12 00:33:12 13° 78° (ENE) 00:35:12 .
